Location: High Meadows Obseravatory
(40.7417°N, 111.5713°W)
Time: 19:21:55
(UTC-06:00)

Envisat - Pass Details

Date: 08 August 2022
Orbit: 763 x 765 km, 98.2° (Epoch: 30 September)

Event Time Altitude Azimuth Distance (km) Brightness Sun altitude
Rises 04:30:53 0° 34° (NE) 3,235 7.7 -19.7°
Reaches altitude 10° 04:34:30 10° 61° (ENE) 2,302 6.6 -19.2°
Maximum altitude 04:36:55 13° 90° (E) 2,068 5.9 -18.8°
Drops below altitude 10° 04:39:20 10° 119° (ESE) 2,294 5.7 -18.5°
Sets 04:42:54 0° 145° (SE) 3,213 6.2 -18.0°
